Regional Weather Roundup
Issued by NWS

Home | Current Version | Previous Version | Text Only | Print | Product List | Glossary On
Versions: 1 2 3 4 5 6 7 8 9 10 11 12 13 14 15 16 17 18 19 20 21 22 23 24 25 26 27 28 29 30 31 32 33 34 35 36 37 38 39 40 41 42 43 44 45 46 47 48 49 50
000
ASUS43 KTOP 191908
RWRKS

WEATHER ROUNDUP FOR KANSAS
NATIONAL WEATHER SERVICE GOODLAND KS
200 PM CDT FRI SEP 19 2014

NOTE:  "FAIR" INDICATES FEW OR NO CLOUDS BELOW 12,000 FEET WITH NO
SIGNIFICANT WEATHER AND/OR OBSTRUCTIONS TO VISIBILITY.

KSZ001>006-013>018-027>032-041>047-192000-
NORTHWEST KANSAS

CITY           SKY/WX    TMP DP  RH WIND       PRES   REMARKS
GOODLAND       SUNNY     85  57  38 S21G29    29.94S
HAYS           SUNNY     88  64  45 SW21G26   29.92F
HILL CITY      SUNNY     89  60  37 S15G26    29.90F
RUSSELL        SUNNY     86  64  47 S24       29.91F
$$

KSZ061>065-074>080-084>089-192000-
SOUTHWEST KANSAS

CITY           SKY/WX    TMP DP  RH WIND       PRES   REMARKS
DODGE CITY     SUNNY     87  59  38 S23G31    29.97F
ELKHART          N/A     81  62  52 S14         N/A
GARDEN CITY    SUNNY     85  61  44 S18G32    29.96F
GREAT BEND     MOSUNNY   88  63  42 S22       29.93F
LIBERAL        MOSUNNY   84  61  45 S15G25    30.00F
PRATT          SUNNY     86  59  39 SW16      29.98F
$$

KSZ066>073-081>083-090>101-192000-
SOUTHEAST KANSAS

CITY           SKY/WX    TMP DP  RH WIND       PRES   REMARKS
CHANUTE        CLOUDY    72  68  87 S7        30.02F
COFFEYVILLE    CLOUDY    73  68  84 S5        30.01F
HUTCHINSON     MOSUNNY   90  65  43 S10G23    29.95F
MEDICINE LODGE   N/A     87  64  46 S16G23    29.95F
NEWTON         SUNNY     88  64  45 S13G20    29.99F
PARSONS        CLOUDY    73  69  87 S6        30.02F
WICHITA INTL   MOSUNNY   90  64  42 S16G23    29.96F
WICHITA JABRA  MOSUNNY   86  66  51 S13G20    29.97F
WICHITA MCCONL MOSUNNY   86  65  49 S13G21    29.98S
WINFIELD       MOSUNNY   82  69  64 S13G20    30.00F
$$

KSZ007>012-019>026-033>040-048>060-102>105-192000-
NORTHEAST KANSAS

CITY           SKY/WX    TMP DP  RH WIND       PRES   REMARKS
CONCORDIA      SUNNY     85  68  56 S15G24    29.92F
EMPORIA        MOSUNNY   76  69  79 S13       29.99F
LAWRENCE       CLOUDY    74  66  76 S12       30.00S HAZE
MANHATTAN      SUNNY     87  69  54 S12       29.92F
MARYSVILLE     SUNNY     84  70  61 SW10      29.91F
OLATHE IND     CLOUDY    73  67  81 SE9       30.01F
OLATHE EXE     CLOUDY    74  68  81 S8        30.00F
SALINA         SUNNY     88  67  49 S14       29.93F
TOPEKA BILLARD PTSUNNY   76  69  79 SE10      29.98F
TOPEKA FORBES  PTSUNNY   76  67  73 S14       29.98F
$$


USA.gov is the U.S. government's official web portal to all federal, state and local government web resources and services.